EHI
0 10 20 12 1 0 0 0 0 0 0 0 0 0 0 0 0 0 0 0 0 0 0 0 0 0 0 0 0 0 0 0 0 0 0 0 0 0 0 0 0 0 0
0 9 18 12 2 0 0 0 0 0 0 0 0 0 0 0 0 0 0 0 0 0 0 0 0 0 0 0 0 0 0 0 0 0 0 0 0 0 0 0 0 0 0
0 5 10 9 2 0 0 0 0 0 0 0 0 0 0 0 0 0 0 0 0 0 0 0 0 0 0 0 0 0 0 0 0 0 0 0 0 0 0 0 0 0 0
0 2 5 6 3 0 0 0 0 0 0 0 0 0 0 0 0 0 0 0 0 0 0 0 0 0 0 0 0 0 0 0 0 0 0 0 1 1 0 0 0 0 0
0 1 5 7 4 1 0 0 0 0 0 0 0 0 0 0 0 0 0 0 0 0 0 0 0 0 0 0 0 0 0 0 0 0 0 1 4 7 5 1 0 0 0
0 1 5 8 6 2 0 0 0 0 0 0 0 0 0 0 0 0 0 0 0 0 0 0 0 0 0 0 0 0 0 0 0 0 0 4 17 28 22 9 3 1 0
5 4 6 9 8 4 1 0 0 0 0 0 0 0 0 0 0 0 0 0 0 0 0 0 0 0 0 0 0 0 0 0 0 0 0 11 39 60 49 27 11 4 1
17 13 9 10 11 6 2 0 0 0 0 0 0 0 0 0 0 0 0 0 0 0 0 0 0 0 0 0 0 0 0 0 0 0 0 18 57 83 74 46 22 8 2
32 24 12 8 9 6 2 1 1 0 0 0 0 0 0 0 0 0 0 0 0 1 1 1 0 0 0 0 0 0 0 0 0 0 0 22 66 92 84 58 28 10 4
42 33 15 4 4 3 2 2 2 1 1 1 0 0 0 0 0 1 1 2 2 3 3 2 1 1 1 3 5 5 3 1 0 0 2 28 72 94 83 57 27 9 3
46 43 28 11 4 1 1 1 2 2 2 2 1 1 1 0 0 3 12 22 25 20 14 9 5 4 3 6 15 17 10 2 0 0 10 42 80 92 79 52 25 7 3
51 53 48 34 18 5 3 5 3 2 4 4 5 9 8 3 1 7 30 55 60 45 27 14 9 6 4 6 15 22 12 2 0 1 21 62 90 91 77 54 28 11 5
60 60 64 64 46 20 13 16 9 6 10 9 12 22 20 9 2 11 40 68 72 55 30 17 14 10 5 4 9 13 10 3 1 5 32 73 95 92 81 63 40 21 11
73 70 77 86 74 47 36 36 23 14 19 24 30 37 33 20 11 16 42 65 65 52 41 32 28 20 12 7 5 5 5 3 2 11 42 78 94 93 88 76 57 37 25
82 81 88 96 91 76 69 65 48 34 36 47 57 61 52 42 34 37 56 73 65 53 55 56 47 38 29 15 5 3 4 3 4 16 46 79 95 96 92 84 71 55 44
82 85 92 98 97 94 90 84 70 55 54 62 73 80 76 68 65 70 80 86 75 59 60 66 61 56 44 25 11 6 7 7 8 17 40 71 91 96 93 86 76 66 60
81 86 93 96 97 98 96 89 74 59 55 65 78 86 88 87 87 92 93 91 83 72 67 70 69 61 48 33 20 13 12 12 13 20 38 60 78 87 89 84 75 68 65
88 93 95 94 96 99 98 90 75 59 56 69 83 90 94 95 96 97 95 89 84 79 74 73 72 64 52 41 28 18 13 13 14 22 36 52 64 74 79 80 75 69 65
96 98 98 96 97 99 100 95 84 74 73 80 88 94 96 97 98 99 96 91 85 79 75 73 72 68 61 49 31 17 12 11 12 16 24 35 47 58 64 70 72 67 61
99 100 100 99 99 100 100 98 94 89 89 90 92 95 96 97 99 99 97 92 88 83 78 74 70 66 62 51 30 15 11 9 7 8 12 17 26 35 43 55 64 61 56
98 99 99 100 100 100 100 100 98 97 96 96 96 95 95 96 97 98 96 93 91 87 81 73 67 60 54 46 32 19 11 7 5 7 13 19 20 22 28 40 51 56 56
93 94 96 98 100 100 99 99 100 100 100 99 98 96 95 95 94 94 94 93 92 88 80 70 63 54 44 39 32 19 9 6 5 8 18 29 34 34 32 30 35 43 48
79 82 88 94 98 98 98 98 99 99 99 99 98 96 96 94 91 90 90 90 90 87 78 67 57 48 40 36 28 16 7 4 4 8 15 27 40 44 36 23 18 23 28
52 58 70 83 93 96 97 97 97 96 96 96 95 95 96 94 89 86 85 85 86 84 75 65 56 49 41 33 24 13 6 4 4 4 7 14 25 32 26 15 10 11 12
26 31 42 60 78 87 90 91 92 92 91 90 91 92 93 92 88 85 83 84 84 80 72 64 59 53 41 30 21 13 8 4 3 2 2 4 8 12 13 9 7 6 5
13 16 24 41 62 75 80 83 86 87 86 86 87 90 90 88 87 86 84 84 83 77 70 65 61 54 40 28 20 15 9 5 3 1 0 0 1 3 6 6 5 4 4
Wind_Speed
18 18 19 15 14 13 13 13 13 12 12 11 10 10 9 9 9 9 9 10 10 10 11 10 10 10 10 11 11 11 11 11 10 10 10 10 9 8 7 7 3 10 11
21 19 19 16 14 14 13 13 13 13 12 11 10 10 9 8 8 7 7 7 8 9 9 9 9 9 9 9 9 8 8 7 6 7 8 8 8 7 6 7 10 9 9
21 19 18 15 14 14 13 13 13 13 12 11 10 9 9 8 7 7 6 6 6 7 7 7 7 7 7 7 6 6 4 3 2 3 6 6 8 7 6 7 9 9 8
20 17 16 17 15 14 13 12 12 12 12 11 10 9 8 7 7 6 5 5 5 5 5 5 6 6 6 5 4 3 2 2 4 5 6 6 7 10 7 6 5 5 5
18 16 17 17 15 14 13 12 12 11 11 10 10 9 8 7 6 6 5 5 4 4 4 4 4 4 4 4 3 3 3 4 7 9 8 4 7 11 10 7 5 4 4
19 18 18 17 15 14 13 12 11 11 11 10 9 8 7 7 6 6 5 5 4 4 3 3 3 3 4 4 4 4 5 6 8 8 7 4 8 12 12 9 7 6 6
19 18 18 17 16 14 13 12 11 11 10 10 9 8 7 7 6 6 6 5 4 4 4 3 3 4 5 5 6 6 7 8 8 9 7 4 8 15 13 11 8 7 8
20 19 17 18 16 14 13 12 11 11 10 10 9 8 7 7 6 6 6 6 6 5 5 5 5 5 6 7 7 8 9 10 10 10 9 5 12 16 14 12 9 8 8
19 19 16 15 14 14 13 12 12 11 10 10 9 8 8 7 7 7 7 7 7 7 7 6 7 7 8 8 8 9 10 11 10 8 11 5 14 16 14 12 10 9 9
18 18 16 15 13 12 12 13 12 12 11 10 10 9 9 9 9 10 9 10 10 9 9 9 9 10 10 10 10 12 12 11 10 11 9 5 14 15 13 11 10 10 10
14 16 16 15 13 12 13 14 13 12 11 11 10 11 10 8 10 10 14 14 14 12 12 11 12 12 11 12 14 15 12 8 11 9 8 8 15 14 13 11 11 11 12
11 14 13 15 13 12 11 11 10 10 10 10 8 10 9 8 7 9 12 16 16 16 14 14 14 13 11 8 11 15 8 11 11 8 5 15 15 15 13 12 11 12 13
8 10 10 12 10 11 7 9 7 7 8 10 10 9 7 6 6 6 5 9 11 13 10 11 12 9 9 7 5 6 9 9 6 5 4 14 14 14 13 12 12 13 14
11 11 11 11 9 6 6 7 7 6 6 8 9 10 8 5 5 4 3 5 7 6 7 6 5 8 8 7 7 7 9 7 5 3 5 14 15 14 14 14 14 14 14
11 10 9 9 9 6 4 3 6 5 6 7 6 8 7 5 6 6 3 2 3 3 4 5 5 5 5 6 7 8 7 7 7 5 4 14 16 16 16 16 16 16 16
14 13 11 10 10 7 5 4 3 4 4 4 4 8 9 6 5 4 3 3 3 4 3 3 4 3 4 4 5 6 6 6 6 6 5 10 17 17 17 17 17 17 17
13 12 10 10 10 9 8 8 6 6 6 5 5 6 7 7 6 4 4 3 4 4 4 3 4 3 4 5 4 6 5 6 6 6 5 4 7 15 18 18 18 17 17
9 9 10 11 11 10 8 6 7 7 6 5 5 5 7 8 6 5 4 4 3 3 3 3 3 3 3 3 3 4 4 4 7 6 6 6 6 6 13 19 19 17 18
6 7 8 7 9 10 10 7 7 6 5 4 3 4 5 8 7 5 4 3 3 2 2 4 3 2 3 3 4 5 4 5 6 8 7 7 6 5 5 11 19 19 18
4 5 6 6 5 6 7 6 6 7 6 5 4 4 4 5 6 5 4 5 3 3 3 3 4 3 2 2 5 6 5 6 7 7 8 6 5 6 6 5 7 12 17
2 2 3 4 4 3 3 5 6 6 5 5 5 6 5 5 5 5 5 5 4 4 4 4 4 4 3 2 2 4 5 7 9 8 8 6 5 4 2 2 3 3 5
5 3 1 1 3 4 4 4 4 4 4 5 4 4 5 6 6 7 7 5 5 5 5 5 4 4 3 3 3 2 3 4 7 8 6 6 6 3 2 3 3 3 3
6 5 4 4 3 3 4 4 5 4 4 5 5 5 6 7 7 7 7 7 6 6 6 6 6 7 5 4 4 4 3 3 4 5 6 4 3 2 1 2 3 3 4
5 4 4 4 3 4 4 4 6 6 6 7 5 5 6 7 8 8 8 8 7 7 7 8 7 6 6 5 4 5 5 3 3 4 4 3 1 1 2 3 3 2 1
3 3 3 3 3 4 4 5 6 7 6 6 6 7 6 6 8 9 8 8 7 7 8 7 7 7 6 6 4 3 4 5 7 5 5 4 3 2 2 2 1 1 2
2 2 2 2 3 3 4 5 6 7 8 8 8 7 6 5 6 8 8 7 8 7 7 7 7 7 6 6 4 4 3 4 4 5 5 4 3 3 2 1 1 1 0
Wind_Direction
124 131 132 132 132 135 138 138 137 136 135 134 130 125 120 114 108 101 94 89 86 85 84 86 87 84 79 76 74 75 75 77 83 91 96 95 91 88 82 69 84 101 98
124 132 133 134 135 137 137 138 139 139 139 139 137 133 130 126 121 114 105 98 92 88 87 89 91 91 89 88 86 85 86 93 105 116 123 119 111 100 83 52 52 103 104
123 131 134 135 138 138 137 138 140 142 143 143 141 140 139 137 133 128 121 112 103 97 94 95 97 99 99 100 100 99 98 107 144 166 182 165 134 124 103 84 87 103 109
126 137 137 138 140 140 139 140 142 144 145 145 145 145 146 147 146 144 139 133 124 116 110 107 108 110 113 116 119 124 140 246 264 257 233 211 154 137 130 113 109 117 127
131 135 134 143 142 143 143 143 144 145 146 147 148 150 151 154 157 156 154 154 150 143 138 133 129 131 138 146 156 177 216 259 277 273 264 196 138 149 147 147 154 163 172
136 134 139 146 145 146 148 149 148 148 149 150 152 155 159 163 167 166 163 166 168 169 169 166 167 169 178 189 199 214 234 256 277 269 261 203 143 158 157 164 180 197 208
139 134 144 148 149 152 154 155 155 154 155 156 159 163 169 175 180 180 178 180 187 192 195 197 204 208 213 219 224 231 240 253 262 277 280 238 149 161 166 174 190 210 222
138 136 144 151 153 158 161 162 163 163 164 165 168 172 179 185 190 192 193 197 203 208 214 220 228 233 234 235 236 240 246 257 258 261 262 241 157 167 173 180 193 215 230
139 136 149 154 159 163 168 170 172 173 174 176 178 182 188 195 200 205 206 210 212 216 222 230 237 242 242 242 243 246 249 252 266 274 275 250 165 173 178 186 199 217 233
137 141 155 158 162 168 174 179 181 182 184 187 191 195 199 205 211 214 214 213 216 218 224 232 239 244 246 245 245 246 248 253 253 257 259 232 170 175 182 193 208 224 236
144 146 158 160 168 177 181 179 183 189 194 196 200 206 209 216 213 211 220 210 210 217 224 232 240 244 246 245 242 242 244 243 249 244 244 188 171 178 188 199 214 230 238
157 153 161 160 171 184 192 167 184 192 191 202 205 198 206 224 232 224 207 201 206 214 222 230 238 244 244 248 237 230 235 236 246 250 223 169 176 184 194 204 218 233 239
169 169 165 159 172 187 193 163 189 197 184 197 216 201 204 221 230 230 186 189 204 214 222 229 227 232 235 231 241 215 224 241 237 248 197 174 181 191 201 210 222 233 239
180 185 177 163 171 200 200 179 187 198 184 193 198 203 201 209 232 237 210 188 196 206 207 222 213 218 232 235 233 230 224 233 241 234 184 184 191 200 208 215 223 232 237
181 191 180 169 169 192 227 223 197 205 199 196 190 192 207 206 213 227 226 215 233 234 203 208 224 226 225 236 241 242 234 238 245 239 209 195 201 206 212 218 223 230 235
184 193 185 176 172 178 201 222 253 228 207 218 197 189 197 211 218 219 216 209 229 250 253 216 238 237 232 241 251 256 248 248 250 242 231 204 210 213 216 220 223 227 231
188 189 179 177 178 180 201 211 224 233 231 215 212 205 196 206 217 212 222 221 225 232 239 232 253 261 255 252 255 267 265 255 252 250 244 235 217 217 222 224 225 227 229
188 178 178 190 187 184 197 212 227 232 236 223 208 206 201 208 218 212 215 227 233 236 242 236 232 247 259 275 282 281 281 280 269 257 244 235 231 229 220 223 228 227 228
182 168 173 199 193 186 194 206 230 248 253 259 239 216 203 201 208 208 219 227 240 251 257 265 252 246 269 277 280 274 276 283 284 276 260 246 237 232 224 219 220 223 227
158 162 173 189 210 194 191 204 222 237 237 235 245 236 220 203 202 203 216 226 230 237 244 251 266 263 260 273 284 288 297 291 283 276 269 262 247 237 231 232 207 221 227
88 146 183 206 213 224 225 221 223 231 234 236 237 236 223 219 213 206 224 219 217 226 231 235 245 250 246 234 256 276 276 274 271 265 258 253 254 250 228 221 209 215 211
14 15 5 284 261 247 247 252 252 253 248 241 245 243 232 224 221 225 220 220 215 221 229 230 227 232 235 215 209 252 287 289 274 260 245 227 228 224 229 249 233 223 230
11 4 359 357 335 310 289 276 270 267 263 260 250 245 237 232 226 228 224 219 216 212 217 218 217 220 226 220 207 206 225 247 309 296 274 249 201 183 232 265 251 230 224
1 0 4 1 344 320 303 286 279 269 264 264 262 253 244 237 236 230 226 223 220 219 218 221 217 216 218 226 220 217 224 232 259 294 305 306 286 216 237 265 295 311 303
339 341 349 358 344 328 310 295 288 282 279 280 276 267 255 245 236 232 228 225 222 225 225 220 214 212 215 222 218 215 226 236 236 249 275 294 304 286 240 212 241 7 2
315 324 336 338 324 318 309 303 292 288 289 288 286 281 269 257 245 236 233 227 226 227 225 221 218 218 218 223 221 218 219 224 227 229 248 266 272 270 254 147 132 136 130